Regional Weather Roundup
Issued by NWS Burlington, VT

Home | Current Version | Previous Version | Text Only | Print | Product List | Glossary On
Versions: 1 2 3 4 5 6 7 8 9 10 11 12 13 14 15 16 17 18 19 20 21 22 23 24 25 26 27 28 29 30 31 32 33 34 35 36 37 38 39 40 41 42 43 44 45 46 47 48 49 50
000
ASUS41 KBTV 041010
RWRBTV
VERMONT REGIONAL WEATHER ROUNDUP
NATIONAL WEATHER SERVICE BURLINGTON VT
600 AM EDT WED MAY 04 2016

NOTE: "FAIR" INDICATES FEW OR NO CLOUDS BELOW 12,000 FEET WITH NO
SIGNIFICANT WEATHER AND/OR OBSTRUCTIONS TO VISIBILITY.

* THESE REPORTS ARE NOT UNDER NWS QUALITY CONTROL AND/OR DO NOT
  REPORT WEATHER SUCH AS PRECIPITATION AND FOG.

VTZ001>019-041100-
_____VERMONT_____


CITY           SKY/WX    TMP DP  RH WIND       PRES   REMARKS
BURLINGTON     FAIR      42  38  85 CALM      29.81R
MONTPELIER     CLOUDY    39  37  92 CALM      29.87R
MORRISVILLE    MOCLDY    35  34  96 CALM      29.84S
ST. JOHNSBURY*   N/A     39  36  89 MISG      29.83S
LYNDONVILLE*   MOCLDY    37  37  97 CALM      29.85S
MIDDLEBURY*    CLOUDY    47  41  78 CALM      29.81R
RUTLAND*       CLOUDY    48  41  76 SE8       29.83R
SPRINGFIELD    CLOUDY    45  42  89 CALM      29.85R
HIGHGATE*      CLOUDY    40  37  89 E5        29.81S
NEWPORT*       CLOUDY    35  34  99 CALM      29.83F
BENNINGTON     CLOUDY    48  45  89 CALM      29.79F
SUTTON*          N/A     37 N/A N/A MISG        N/A

_____LAKE CHAMPLAIN_____


CITY           SKY/WX    TMP DP  RH WIND       PRES   REMARKS
COLCHESTER RF*   N/A     41  41 100 W5          N/A
DIAMOND ISL*     N/A     43  43 100 NE2         N/A

$$

NYZ007-026>031-035-052-083-087-041100-
_____NORTHERN NEW YORK_____


CITY           SKY/WX    TMP DP  RH WIND       PRES   REMARKS
PLATTSBURGH    CLOUDY    38  36  92 CALM      29.81
SARANAC LAKE   CLOUDY    39  37  92 N3        29.76R
MASSENA        CLOUDY    43  38  82 E7        29.80S
OGDENSBURG*    CLEAR     45  39  81 E3        29.77S
POTSDAM*       CLOUDY    43  41  93 E5        29.78
WATERTOWN      CLOUDY    48  44  86 N3        29.75S
FT DRUM        CLOUDY    49  44  83 SE6       29.75S
ALBANY         CLOUDY    49  47  93 SE3       29.80S
GLENS FALLS    CLOUDY    46  43  89 N3        29.81S FOG

$$
NHZ002-005-011-041100-
_____NEW HAMPSHIRE_____


CITY           SKY/WX    TMP DP  RH WIND       PRES   REMARKS
LEBANON        CLOUDY    44  41  89 CALM      29.84R
KEENE          MOCLDY    46  45  93 CALM      29.85S
MT WASHINGTON  MOCLDY    32  14  47 W12         N/A  WCI  23
PLYMOUTH       CLOUDY    43  42  98 CALM      29.87R
WHITEFIELD     CLOUDY    35  33  92 CALM      29.83S FOG

$$

_____REGIONAL QUEBEC LOCATIONS_____


CITY           SKY/WX    TMP DP  RH WIND       PRES   REMARKS
MONTREAL       MOCLDY    41  37  87 NE12      29.82S
QUEBEC CITY    CLOUDY    41  37  87 NE13      29.91S
SHERBROOKE     CLOUDY    41  39  93 NE6       29.85R

_____REGIONAL ONTARIO LOCATIONS_____


CITY           SKY/WX    TMP DP  RH WIND       PRES   REMARKS
OTTAWA         MOCLDY    39  36  87 NE10      29.80S

______KEY______
VSB  - VISIBILITY IN MILES
WCI  - WIND CHILL INDEX
HX   - HEAT INDEX
$$
NNNN




USA.gov is the U.S. government's official web portal to all federal, state and local government web resources and services.